CZ-6A DEB, 60673

Orbit data source: Space-Track

CZ-6A DEB, 60673 is space debris in LEO originally from a launch on Tue, 06 Aug 2024 UTC launched from the Taiyaun Space Center, China (TSC). Debris objects in space refer to the collection of defunct objects orbiting the Earth. Examples of debris include non-operational satellites, rocket bodies, and fragments generated from explosions, collisions, or faulty payload assembly.

Loading next visibility...
Identifier
60673, 2024-140CA
Orbit
LEO
Country
Flag of CNCN / PRC
Related business
Manufacturer
SAST
Mission
Spacecraft
Bus & Motor
Unknown
Mass
Unknown
Launch date (UTC)
2024-08-06 (1 year ago)
Launch vehicle
Unknown
Launch site
Taiyaun Space Center, China (TSC)
Object type
Payload
Rocket body
Debris
Shape & HBR
Unknown shape, 0.6 m
Radar Cross Section
Small (<0.1 m²)

Expand to show TLE details & history
Last TLE update: 17 hours ago

TLE from 17 hours ago
0 CZ-6A DEB
1 60673U 24140CA  25353.84592247  .00003422  00000-0  35062-3 0  9992
2 60673  89.2864 308.3524 0221268 147.2683 214.2475 14.73703221 73025
Epoch: 2025-12-19T20:18Z
TLE epoch observation values (Epoch: 2025-12-19T20:18:07.701Z)
Latitude
-0.00004°
Longitude
-84.86091°
Altitude
782.028 km
Speed
7.394 km/s
True Right ascension
20h 33m 24s
True Declination
0° 00' 00"
Sunlit
Object was in daylight at epoch
Visualization orbit readout
Latitude
Unknown
Longitude
Unknown
Altitude
Unknown
Speed
Unknown
Apparent Right ascension
Unknown
Apparent Declination
Unknown
Sunlit
N/A
Visualization observer readout
Local Sidereal Time
12:21:19
Azimuth
Unknown
Elevation
Unknown
Doppler factor
Unknown
Orbital elements
Apogee altitude
801.567 km
Perigee altitude
490.717 km
Semi-major axis
7,024.279 km
Eccentricity
0.02213
Inclination
89.2864°
RAAN
308.3524°
Arg. of periapsis
147.2683°
True anomaly
212.85263°
Mean anomaly
214.2475°
Eccentric anomaly
213.5469°
Mean motion
3.68672 °/min
Orbital period
97.65 mins
BSTAR
0.00035062
Loading maneuver chart data...
Computing Atmospheric mass density...
Loading historical data...
Loading historical data...
Loading historical data...
Loading historical data...
Loading historical data...
Loading historical data...
Loading historical data...

Documentation

Showing up to 5 results
|